Location: Newark
(42.8481°N, 0.4872°E)
Time: 17:44:54
(UTC+00:00)

Vanguard 1 - Pass Details

Date: 04 November 2020
Orbit: 650 x 3833 km, 34.2° (Epoch: 28 November)

Event Time Altitude Azimuth Distance (km) Brightness Sun altitude
Rises 16:25:25 0° 282° (WNW) 7,932 15.7 2.7°
Reaches altitude 10° 16:31:14 10° 277° (W) 6,942 15.6 1.7°
Maximum altitude 16:51:47 44° 215° (SW) 4,090 13.8 -1.8°
Drops below altitude 10° 17:06:12 10° 150° (SSE) 4,965 13.5 -4.3°
Sets 17:09:35 0° 143° (SE) 5,596 13.7 -4.9°
